Canadian, TX

1:48 AM CST on December 09, 2019 (GMT -0600)
Hemphill County

Weather History for KHHF - October, 2019

Change the Weather History Date:

Sunday, October 20, 2019

  Actual Average (KPPA) Record (KPPA)
Temperature  
Mean Temperature 59 °F -  
Max Temperature 79 °F 67 °F 90 °F (1977)
Min Temperature 39 °F 42 °F 24 °F (1976)
Degree Days  
Heating Degree Days 6    
Growing Degree Days 9 (Base 50)    
Moisture  
Dew Point 36 °F    
Average Humidity 44    
Maximum Humidity 68    
Minimum Humidity 15    
Precipitation  
Precipitation 0.00 in - - ()
Sea Level Pressure  
Sea Level Pressure 29.71 in    
Wind  
Wind Speed 12 mph (SW)    
Max Wind Speed 29 mph    
Max Gust Speed 39 mph    
Visibility 10 miles    
Events      
Averages and records for this station are not official NWS values.
T = Trace of Precipitation, MM = Missing Value Source: NWS Daily Summary

Daily Weather History Graph

Daily Weather History Graph

Search for Another Location

Airport or City:

Astronomy

Oct. 20, 2019 Rise Set
Actual Time 7:52 AM CDT 6:59 PM CDT
Civil Twilight 7:26 AM CDT 7:25 PM CDT
Nautical Twilight 6:56 AM CDT 7:55 PM CDT
Astronomical Twilight 6:27 AM CDT 8:25 PM CDT
Moon No Moon Rise 2:14 PM CDT (10/20)
Length of Visible Light 11h 59m
Length of Day
11h 07m
Waning Gibbous, 59% of the Moon is Illuminated
Oct 20
Waning Gibbous
Oct 21
Last Quarter
Oct 27
New
Nov 4
First Quarter
Nov 12
Full

Hourly Weather History & Observations

Time (CDT) Temp. Windchill Dew Point Humidity Pressure Visibility Wind Dir Wind Speed Gust Speed Precip Events Conditions
12:15 AM 57.9 °F - 35.4 °F 43% 29.82 in 10.0 mi South 8.1 mph - N/A   Clear
12:35 AM 56.3 °F - 36.5 °F 47% 29.82 in 10.0 mi South 10.4 mph - N/A   Clear
12:55 AM 56.7 °F - 37.0 °F 48% 29.81 in 10.0 mi South 9.2 mph - N/A   Clear
1:15 AM 56.7 °F - 37.4 °F 49% 29.80 in 10.0 mi South 12.7 mph - N/A   Clear
1:35 AM 55.0 °F - 37.6 °F 52% 29.79 in 10.0 mi SSE 9.2 mph - N/A   Clear
1:55 AM 54.0 °F - 38.1 °F 55% 29.79 in 10.0 mi SE 5.8 mph - N/A   Clear
2:15 AM 55.0 °F - 39.4 °F 56% 29.78 in 10.0 mi SSE 6.9 mph - N/A   Clear
2:35 AM 54.9 °F - 39.7 °F 57% 29.77 in 10.0 mi SSE 4.6 mph - N/A   Clear
2:55 AM 53.6 °F - 40.1 °F 60% 29.76 in 10.0 mi SSE 6.9 mph - N/A   Clear
3:15 AM 54.9 °F - 40.8 °F 59% 29.77 in 10.0 mi South 8.1 mph 16.1 mph N/A   Clear
3:35 AM 54.9 °F - 41.0 °F 60% 29.76 in 10.0 mi South 4.6 mph - N/A   Clear
3:55 AM 54.9 °F - 41.2 °F 60% 29.76 in 7.0 mi South 8.1 mph - N/A   Clear
4:15 AM 55.6 °F - 42.1 °F 60% 29.76 in 10.0 mi South 10.4 mph - N/A   Clear
4:35 AM 54.9 °F - 42.8 °F 64% 29.75 in 10.0 mi South 11.5 mph 21.9 mph N/A   Clear
4:55 AM 55.2 °F - 43.5 °F 65% 29.74 in 10.0 mi South 12.7 mph 18.4 mph N/A   Clear
5:15 AM 54.9 °F - 43.7 °F 66% 29.74 in 10.0 mi South 13.8 mph 19.6 mph N/A   Clear
5:35 AM 55.0 °F - 44.1 °F 67% 29.73 in 10.0 mi South 12.7 mph 20.7 mph N/A   Clear
5:55 AM 55.2 °F - 44.4 °F 67% 29.73 in 10.0 mi South 13.8 mph 20.7 mph N/A   Clear
6:15 AM 54.9 °F - 44.6 °F 68% 29.72 in 10.0 mi SSW 11.5 mph 18.4 mph N/A   Clear
6:35 AM 54.9 °F - 44.2 °F 67% 29.72 in 10.0 mi South 15.0 mph 23.0 mph N/A   Clear
6:55 AM 55.2 °F - 44.4 °F 67% 29.70 in 10.0 mi South 20.7 mph 29.9 mph N/A   Clear
7:15 AM 55.6 °F - 44.4 °F 66% 29.70 in 10.0 mi South 28.8 mph 38.0 mph N/A   Clear
7:35 AM 55.4 °F - 44.2 °F 66% 29.70 in 10.0 mi South 25.3 mph 36.8 mph N/A   Clear
7:55 AM 55.6 °F - 44.1 °F 65% 29.70 in 10.0 mi South 26.5 mph 34.5 mph N/A   Clear
8:15 AM 56.3 °F - 43.7 °F 63% 29.70 in 10.0 mi South 21.9 mph 33.4 mph N/A   Clear
8:35 AM 57.4 °F - 44.1 °F 61% 29.70 in 10.0 mi SSW 24.2 mph 33.4 mph N/A   Clear
8:55 AM 58.3 °F - 44.6 °F 60% 29.69 in 10.0 mi South 27.6 mph 36.8 mph N/A   Clear
9:15 AM 59.2 °F - 44.8 °F 59% 29.69 in 10.0 mi South 27.6 mph 34.5 mph N/A   Clear
9:35 AM 61.0 °F - 45.5 °F 57% 29.69 in 10.0 mi South 26.5 mph 36.8 mph N/A   Clear
9:55 AM 62.2 °F - 46.0 °F 55% 29.68 in 10.0 mi South 26.5 mph 39.1 mph N/A   Clear
10:15 AM 63.7 °F - 46.6 °F 54% 29.68 in 10.0 mi South 25.3 mph 36.8 mph N/A   Clear
10:35 AM 66.7 °F - 46.0 °F 47% 29.68 in 10.0 mi SSW 25.3 mph 35.7 mph N/A   Clear
10:55 AM 68.2 °F - 45.0 °F 43% 29.68 in 10.0 mi SSW 21.9 mph 35.7 mph N/A   Clear
11:35 AM 68.9 °F - 43.3 °F 40% 29.68 in 10.0 mi SSW 17.3 mph 24.2 mph N/A   Clear
11:55 AM 70.2 °F - 42.6 °F 37% 29.67 in 10.0 mi SSW 15.0 mph 25.3 mph N/A   Clear
12:15 PM 70.9 °F - 41.0 °F 34% 29.67 in 10.0 mi SW 16.1 mph 21.9 mph N/A   Clear
12:35 PM 72.5 °F - 40.3 °F 31% 29.66 in 10.0 mi SW 15.0 mph 19.6 mph N/A   Clear
12:55 PM 75.2 °F - 39.0 °F 27% 29.65 in 10.0 mi SW 15.0 mph - N/A   Clear
1:15 PM 76.1 °F - 39.0 °F 26% 29.63 in 10.0 mi SW 15.0 mph 21.9 mph N/A   Clear
1:35 PM 77.5 °F - 37.9 °F 24% 29.63 in 10.0 mi WSW 10.4 mph 21.9 mph N/A   Clear
1:55 PM 79.0 °F - 29.7 °F 16% 29.63 in 10.0 mi WSW 16.1 mph 24.2 mph N/A   Clear
2:15 PM 79.0 °F - 28.0 °F 15% 29.61 in 10.0 mi WSW 15.0 mph 23.0 mph N/A   Clear
2:35 PM 77.9 °F - 26.1 °F 15% 29.61 in 10.0 mi West 16.1 mph 23.0 mph N/A   Clear
2:55 PM 77.4 °F - 30.6 °F 18% 29.60 in 10.0 mi NNW 15.0 mph 20.7 mph N/A   Clear
3:15 PM 73.6 °F - 34.5 °F 24% 29.60 in 10.0 mi NNW 13.8 mph - N/A   Clear
3:35 PM 72.7 °F - 33.6 °F 24% 29.60 in 10.0 mi NNW 13.8 mph - N/A   Clear
3:55 PM 71.2 °F - 33.3 °F 25% 29.61 in 10.0 mi North 11.5 mph - N/A   Clear
4:15 PM 70.9 °F - 32.0 °F 24% 29.61 in 10.0 mi NNW 6.9 mph - N/A   Clear
4:35 PM 70.9 °F - 32.0 °F 24% 29.61 in 10.0 mi NNW 9.2 mph - N/A   Clear
4:55 PM 68.9 °F - 32.2 °F 26% 29.60 in 10.0 mi North 12.7 mph - N/A   Clear
5:15 PM 67.3 °F - 32.0 °F 27% 29.61 in 10.0 mi North 11.5 mph 18.4 mph N/A   Clear
5:35 PM 66.6 °F - 31.8 °F 27% 29.61 in 10.0 mi North 15.0 mph 18.4 mph N/A   Clear
5:55 PM 65.8 °F - 30.6 °F 27% 29.63 in 10.0 mi North 13.8 mph 24.2 mph N/A   Clear
6:15 PM 66.2 °F - 30.2 °F 26% 29.63 in 10.0 mi North 13.8 mph 18.4 mph N/A   Clear
6:35 PM 65.3 °F - 26.8 °F 23% 29.65 in 10.0 mi North 12.7 mph 20.7 mph N/A   Clear
6:55 PM 64.0 °F - 24.4 °F 22% 29.67 in 10.0 mi North 12.7 mph 17.3 mph N/A   Clear
7:15 PM 62.6 °F - 23.9 °F 23% 29.68 in 10.0 mi North 6.9 mph - N/A   Clear
7:35 PM 59.2 °F - 24.8 °F 27% 29.70 in 10.0 mi NNW 4.6 mph - N/A   Clear
7:55 PM 57.7 °F - 24.8 °F 28% 29.72 in 10.0 mi NNW 5.8 mph - N/A   Clear
8:15 PM 56.8 °F - 25.2 °F 30% 29.74 in 10.0 mi NNW 4.6 mph - N/A   Clear
8:35 PM 55.2 °F - 25.5 °F 32% 29.76 in 10.0 mi North 6.9 mph - N/A   Clear
8:55 PM 55.9 °F - 25.2 °F 31% 29.76 in 10.0 mi North 4.6 mph - N/A   Clear
9:15 PM 54.9 °F - 24.8 °F 31% 29.77 in 10.0 mi Calm Calm - N/A   Clear
9:35 PM 50.7 °F - 25.9 °F 38% 29.77 in 10.0 mi Calm Calm - N/A   Clear
9:55 PM 46.4 °F 45.2 °F 26.4 °F 46% 29.77 in 10.0 mi SW 3.5 mph - N/A   Clear
10:15 PM 45.9 °F - 26.1 °F 46% 29.77 in 10.0 mi Calm Calm - N/A   Clear
10:35 PM 41.7 °F 38.8 °F 27.1 °F 56% 29.77 in 10.0 mi SSW 4.6 mph - N/A   Clear
10:55 PM 39.0 °F 34.8 °F 28.0 °F 65% 29.78 in 10.0 mi SW 5.8 mph - N/A   Clear
11:15 PM 41.0 °F 37.1 °F 27.3 °F 58% 29.80 in 10.0 mi West 5.8 mph - N/A   Clear
11:35 PM 50.4 °F - 23.2 °F 35% 29.81 in 10.0 mi NW 11.5 mph - N/A   Clear
11:55 PM 51.8 °F - 20.8 °F 30% 29.82 in 10.0 mi NW 8.1 mph - N/A   Clear